Volver al catálogo

GALILEO 11 (268)

ActivoNavegaciónMEO
NORAD 41175·PAYLOAD·🇪🇺 EU

Lanzado Dec 17, 2015 desde Guiana Space Centre

Loading…

Próximos Pases (próximas 24 horas)

TLE

ActualizadoSource: CelesTrak SupGP

Época: Sep 13, 2026, 23:59 UTC

1 41175C 15079B   26256.99979167  .00000000  00000+0  00000+0 0  2562
2 41175  55.8817  98.8205 0003232  28.2266  73.7028  1.70474012    16

Sigue GALILEO 11 (268) en tiempo real con AllMySat

Download on the App Store